Regional Weather Roundup
Issued by NWS

Home | Current Version | Previous Version | Text Only | Print | Product List | Glossary Off
Versions: 1 2 3 4 5 6 7 8 9 10 11 12 13 14 15 16 17 18 19 20 21 22 23 24 25 26 27 28 29 30 31 32 33 34 35 36 37 38 39 40 41 42 43 44 45 46 47 48 49 50

000
ASUS43 KDMX 300508
RWRIA

WEATHER ROUNDUP FOR IOWA
NATIONAL WEATHER SERVICE DES MOINES IA
1200 AM CDT TUE AUG 30 2016

NOTE: "FAIR" INDICATES FEW OR NO CLOUDS BELOW 12,000 FEET WITH NO
SIGNIFICANT WEATHER AND/OR OBSTRUCTIONS TO VISIBILITY.

* - THESE STATIONS ARE NOT NWS STATIONS...THUS NOT UNDER NWS
QUALITY CONTROL.  THEY ALSO DO NOT REPORT WEATHER SUCH
AS PRECIPITATION OR FOG.

IAZ001>003-012>014-020>022-031>034-043>046-300600-
   NORTHWEST IOWA

CITY           SKY/WX    TMP DP  RH WIND       PRES   REMARKS
CARROLL *      CLOUDY    70  68  94 SW6       30.20F
CHEROKEE *     CLOUDY    69  69  98 CALM      30.20F
DENISON *      CLOUDY    68  66  94 CALM      30.19F
LE MARS *      CLOUDY    70  66  88 SW6       30.20F
ORANGE CITY *  CLOUDY    70  66  88 W6        30.20F
SHELDON *      MOCLDY    70  68  94 SW8G15    30.18F
SIOUX CITY     CLOUDY    71  67  87 CALM      30.18F
SPENCER        MOCLDY    71  68  90 W9        30.19F
STORM LAKE *   CLOUDY    68  66  94 W8        30.20F
$$

IAZ055>058-069>071-079>083-090>094-300600-
   SOUTHWEST IOWA

CITY           SKY/WX    TMP DP  RH WIND       PRES   REMARKS
ATLANTIC *     LGT RAIN  70  68  94 E5        30.22F
AUDUBON *      CLOUDY    70  66  88 SW3       30.23S
CLARINDA *       N/A     70  70 100 MISG      30.24R
COUNCIL BLFS * CLOUDY    70  70 100 E6        30.20F
CRESTON *      CLOUDY    70  68  94 NW5       30.24S
HARLAN  *      CLOUDY    68  68 100 S3        30.24F
LAMONI         CLOUDY    72  69  90 E5        30.19F
RED OAK *      LGT RAIN  70  70 100 NE3       30.22S
SHENANDOAH *   LGT RAIN  70 -38   1 CALM      30.21F
$$

IAZ047>049-059>061-072>074-084-300600-
   CENTRAL IOWA

CITY           SKY/WX    TMP DP  RH WIND       PRES   REMARKS
AMES           CLOUDY    69  69 100 CALM      30.20R
ANKENY *         N/A    N/A N/A N/A MISG        N/A
BOONE *        CLOUDY    70  70 100 W5        30.19F
CHARITON *     RAIN      72  70  94 MISG      30.18F
DES MOINES     LGT RAIN  74  72  93 SW3       30.18F
GRINNELL*      CLOUDY    69  66  92 CALM      30.21R
KNOXVILLE *    CLOUDY    72  70  94 W7        30.17F
MARSHALLTOWN   PTCLDY    68  68 100 NE5       30.18S
NEWTON *       CLOUDY    70  70 100 CALM      30.18R
PELLA *        CLOUDY    72  69  92 CALM      30.19F
PERRY *          N/A     69  69 100 W3        30.20S
$$

IAZ004>006-015-016-023>025-035-036-300600-
   NORTH CENTRAL IOWA

CITY           SKY/WX    TMP DP  RH WIND       PRES   REMARKS
ALGONA *       CLOUDY    70  68  94 S8        30.19F
ESTHERVILLE    CLOUDY    69  69 100 SW7       30.18F
FORT DODGE *   CLOUDY    70  66  88 S3        30.20F
MASON CITY     CLOUDY    68  66  93 CALM      30.20F
FOREST CITY *    N/A    N/A N/A N/A MISG        N/A
WEBSTER CITY * CLOUDY    68  68 100 CALM      30.18F
IOWA FALLS *     N/A     68  67  95 CALM      30.21S
$$

IAZ007>011-017>019-026>030-037>042-050>054-066-300600-
   NORTHEAST IOWA

CITY           SKY/WX    TMP DP  RH WIND       PRES   REMARKS
CEDAR RAPIDS   PTCLDY    70  70 100 SE3       30.18S
CHARLES CITY * CLOUDY    70  70 100 CALM      30.20F FOG
CLINTON *      CLOUDY    69  68  96 CALM      30.19R
DECORAH *      MOCLDY    72  72 100 CALM      30.18F FOG
DUBUQUE        PTCLDY    68  66  93 S3        30.20R
MONTICELLO *   PTCLDY    70  70 100 CALM      30.18S
OELWEIN *      CLOUDY    70  68  94 CALM      30.20S
WATERLOO       CLOUDY    68  66  93 CALM      30.18S
$$

IAZ064-065-067-068-078-300600-
   EAST CENTRAL IOWA

CITY           SKY/WX    TMP DP  RH WIND       PRES   REMARKS
DAVENPORT      PTCLDY    69  68  96 N3        30.19R FOG
IOWA CITY      CLOUDY    73  70  90 CALM      30.20R
MT. PLEASANT * PTCLDY    73  73 100 CALM      30.17S FOG
QUAD CITIES    PTCLDY    73  70  90 CALM      30.17R
$$

IAZ062-063-075>077-085>089-095>099-300600-
   SOUTHEAST IOWA

CITY           SKY/WX    TMP DP  RH WIND       PRES   REMARKS
BURLINGTON     MOCLDY    72  71  97 N5        30.17R
FAIRFIELD *    CLOUDY    70  68  94 CALM      30.18R
FORT MADISON * PTCLDY    70  70 100 N3        30.18R
KEOKUK *       CLEAR     73  72  94 CALM      30.16R
OSKALOOSA *    CLOUDY    68  67  95 NW7       30.19R
CENTERVILLE *    N/A     72  68  88 CALM      30.21R
OTTUMWA        CLOUDY    69  67  93 CALM      30.18R
WASHINGTON *   CLOUDY    73  72  94 N6        30.19R
$$

ABBREVIATIONS USED IN REMARKS
   TC - TEMPERATURES IN CELSIUS
  WCI - WIND CHILL INDEX
   HX - HEAT INDEX
  VSB - VISIBILITY
$$





USA.gov is the U.S. government's official web portal to all federal, state and local government web resources and services.